Regional Weather Roundup
Issued by NWS

Home | Current Version | Previous Version | Text Only | Print | Product List | Glossary Off
Versions: 1 2 3 4 5 6 7 8 9 10 11 12 13 14 15 16 17 18 19 20 21 22 23 24 25 26 27 28 29 30 31 32 33 34 35 36 37 38 39 40 41 42 43 44 45 46 47 48 49 50

000
ASUS43 KIND 011609
RWRIN

WEATHER ROUNDUP FOR INDIANA
NATIONAL WEATHER SERVICE INDIANAPOLIS IN
1200 PM EDT MON SEP 01 2014

NOTE: "FAIR" INDICATES FEW OR NO CLOUDS BELOW 12,000 FEET WITH NO
SIGNIFICANT WEATHER AND/OR OBSTRUCTIONS TO VISIBILITY.

* - STATION DOES NOT REPORT WEATHER SUCH AS PRECIPITATION OR FOG.

+ - STATION NOT QUALITY CONTROLLED BY THE NATIONAL WEATHER SERVICE.
    USE DATA WITH CAUTION...ESPECIALLY DEWPOINT AND RELATIVE
    HUMIDITY OBSERVATIONS.

INZ001>003-010>013-019-020-011700-
NORTHWEST INDIANA

CITY           SKY/WX    TMP DP  RH WIND       PRES   REMARKS
GARY /AIRPORT/ CLOUDY    77  72  83 S14G25    29.77S FOG
KNOX *+        CLOUDY    75  69  83 S12G17    29.82R
LA PORTE +     CLOUDY    73  73  97 SW9G16    29.82R FOG
MICHIGAN CITY+ CLOUDY    73  70  88 S12G24    29.79S
MONTICELLO +   CLOUDY    76  72  86 S12G18    29.84R
RENSSELAER +   CLOUDY    75  73  94 S14G20    29.82F
VALPARAISO     CLOUDY    74  71  91 S14G21    29.81R

$$

LMZ046-743>745-011700-
SOUTHERN LAKE MICHIGAN

STATION/POSITION TIME  TEMP WIND        PRES
                       AIR  DIR/SP/G
                 (UTC) (F)  (DEG/KT/KT) (MB)
MICHIGAN CITY    1600   74  170/ 18/ 25   N/A

$$

INZ004-005-014>016-021>024-011700-
NORTH CENTRAL INDIANA

CITY           SKY/WX    TMP DP  RH WIND       PRES   REMARKS
ELKHART        CLOUDY    75  72  88 S14G20    29.82F
GOSHEN         CLOUDY    80  70  71 S18G25    29.83F
LOGANSPORT +   CLOUDY    77  68  73 S20G25    29.86S
PERU/GRISSOM   PTSUNNY   78  74  87 S18G24    29.85F
ROCHESTER +    CLOUDY    79  72  78 SW13      29.85S
SOUTH BEND     CLOUDY    76  70  82 S17G24    29.82S
WARSAW +       CLOUDY    77  70  78 SW6       29.84F

$$

INZ006>009-017-018-025>027-011700-
NORTHEAST INDIANA

CITY           SKY/WX    TMP DP  RH WIND       PRES   REMARKS
ANGOLA *+      CLOUDY    77  72  83 S10       29.85F
AUBURN +       PTSUNNY   79  70  73 SW8G17    29.87F
FORT WAYNE     PTSUNNY   80  71  74 S16       29.87F
HUNTINGTON +   CLOUDY    79  72  79 SW10G16   29.86F

$$

INZ028-029-035-036-043>045-051>053-011700-
WEST CENTRAL INDIANA

CITY           SKY/WX    TMP DP  RH WIND       PRES   REMARKS
GREENCASTLE +  CLOUDY    77  72  83 S10G16    29.89F
LAFAYETTE      CLOUDY    76  71  85 S13G21    29.85R
TERRE HAUTE    CLOUDY    78  72  81 S12       29.86F

$$

INZ030>032-037>040-046>048-054>057-064-065-011700-
CENTRAL INDIANA

CITY           SKY/WX    TMP DP  RH WIND       PRES   REMARKS
CP ATTERBURY + CLOUDY    81  72  74 S13       29.93F
COLUMBUS       PTSUNNY   81  73  78 MISG      29.94F
FRANKFORT +    PTSUNNY   79  72  77 S13G22    29.87F
GREENWOOD *+   CLOUDY    79  73  83 SW15G23   29.92
INDIANAPOLIS   PTSUNNY   80  71  74 S17G25    29.88F
-EAGLE CREEK   PTSUNNY   80  70  71 S15G25    29.88F
KOKOMO *+      CLOUDY    79  72  78 S17G23    29.86F
MARION +       CLOUDY    79  69  72 S18       29.89S
MT COMFORT *+  PTSUNNY   79  77  94 S15G23    29.91F
SHELBYVILLE    CLOUDY    81  72  74 S16G24    29.92F
ZIONSVILLE +   CLOUDY    78  70  74 S15G23    29.89F

$$

INZ033-034-041-042-049-050-058-059-011700-
EAST CENTRAL INDIANA

CITY           SKY/WX    TMP DP  RH WIND       PRES   REMARKS
MUNCIE         PTSUNNY   80  70  71 S10G24    29.90F

$$

INZ060-061-067>069-081>083-085>088-011700-
SOUTHWEST INDIANA

CITY           SKY/WX    TMP DP  RH WIND       PRES   REMARKS
EVANSVILLE     PTSUNNY   82  73  74 SW18G24   29.94F
WASHINGTON +   PTSUNNY   81  73  78 SW17G29   29.91F

$$

INZ062-063-066-070>080-084-089>092-011700-
SOUTH CENTRAL AND SOUTHEAST INDIANA

CITY           SKY/WX    TMP DP  RH WIND       PRES   REMARKS
BEDFORD +      PTSUNNY   81  70  69 SW13G21   29.94
BLOOMINGTON    CLOUDY    78  71  79 SW17G25   29.92F

$$




USA.gov is the U.S. government's official web portal to all federal, state and local government web resources and services.